Time,TemperatureF,DewpointF,PressureIn,WindDirection,WindDirectionDegrees,WindSpeedMPH,WindSpeedGustMPH,Humidity,HourlyPrecipIn,Conditions,Clouds,dailyrainin,SoftwareType,DateUTC
2013-01-03 00:02:00,30.0,19.0,30.16,NNE,14,2.0,6.0,63,0.00,,,0.00,,2013-01-03 06:02:00,
2013-01-03 00:12:00,30.0,19.0,30.16,NNE,14,2.0,6.0,63,0.00,,,0.00,,2013-01-03 06:12:00,
2013-01-03 00:22:00,30.0,19.0,30.16,NNE,14,2.0,6.0,63,0.00,,,0.00,,2013-01-03 06:22:00,
2013-01-03 01:53:00,29.0,20.0,30.16,North,11,3.0,3.0,68,0.00,,,0.00,,2013-01-03 07:53:00,
2013-01-03 02:02:00,29.0,20.0,30.16,North,11,3.0,3.0,68,0.00,,,0.00,,2013-01-03 08:02:00,
2013-01-03 02:12:00,29.0,20.0,30.16,North,11,3.0,3.0,68,0.00,,,0.00,,2013-01-03 08:12:00,
2013-01-03 02:22:00,29.0,20.0,30.16,North,11,3.0,3.0,68,0.00,,,0.00,,2013-01-03 08:22:00,
2013-01-03 03:53:00,30.0,22.0,30.16,WNW,292,5.0,10.0,72,0.00,,,0.00,,2013-01-03 09:53:00,
2013-01-03 04:02:00,30.0,22.0,30.16,WNW,292,5.0,10.0,72,0.00,,,0.00,,2013-01-03 10:02:00,
2013-01-03 04:12:00,30.0,22.0,30.16,WNW,292,5.0,10.0,72,0.00,,,0.00,,2013-01-03 10:12:00,
2013-01-03 04:22:00,30.0,22.0,30.16,WNW,292,5.0,10.0,72,0.00,,,0.00,,2013-01-03 10:22:00,
2013-01-03 05:53:00,30.0,22.0,30.19,North,356,3.0,8.0,72,0.00,,,0.00,,2013-01-03 11:53:00,
2013-01-03 06:03:00,30.0,22.0,30.19,North,356,3.0,8.0,72,0.00,,,0.00,,2013-01-03 12:03:00,
2013-01-03 06:12:00,30.0,22.0,30.19,North,356,3.0,8.0,72,0.00,,,0.00,,2013-01-03 12:12:00,
2013-01-03 06:22:00,30.0,22.0,30.19,North,356,3.0,8.0,72,0.00,,,0.00,,2013-01-03 12:22:00,
2013-01-03 07:53:00,22.0,13.0,30.25,North,7,5.0,5.0,67,0.00,,,0.00,,2013-01-03 13:53:00,
2013-01-03 08:03:00,22.0,13.0,30.25,North,7,5.0,5.0,67,0.00,,,0.00,,2013-01-03 14:03:00,
2013-01-03 08:12:00,22.0,13.0,30.25,North,7,5.0,5.0,67,0.00,,,0.00,,2013-01-03 14:12:00,
2013-01-03 08:22:00,22.0,13.0,30.25,North,7,5.0,5.0,67,0.00,,,0.00,,2013-01-03 14:22:00,
2013-01-03 09:53:00,17.0,3.0,30.31,North,356,7.0,14.0,53,0.00,,,0.00,,2013-01-03 15:53:00,
2013-01-03 10:03:00,17.0,3.0,30.31,North,356,7.0,14.0,53,0.00,,,0.00,,2013-01-03 16:03:00,
2013-01-03 10:12:00,17.0,3.0,30.31,North,356,7.0,14.0,53,0.00,,,0.00,,2013-01-03 16:12:00,
2013-01-03 10:22:00,17.0,3.0,30.31,North,356,7.0,14.0,53,0.00,,,0.00,,2013-01-03 16:22:00,
2013-01-03 11:53:00,16.0,0.0,30.34,NNE,23,8.0,13.0,49,0.00,,,0.00,,2013-01-03 17:53:00,
2013-01-03 12:03:00,16.0,0.0,30.34,NNE,23,8.0,13.0,49,0.00,,,0.00,,2013-01-03 18:03:00,
2013-01-03 12:13:00,16.0,0.0,30.34,NNE,23,8.0,13.0,49,0.00,,,0.00,,2013-01-03 18:13:00,
2013-01-03 12:22:00,16.0,0.0,30.34,NNE,23,8.0,13.0,49,0.00,,,0.00,,2013-01-03 18:22:00,
2013-01-03 13:57:00,18.0,3.0,30.31,NNE,29,8.0,11.0,50,0.00,,,0.00,,2013-01-03 19:57:00,
2013-01-03 14:03:00,18.0,3.0,30.31,NNE,29,8.0,11.0,50,0.00,,,0.00,,2013-01-03 20:03:00,
2013-01-03 14:12:00,18.0,3.0,30.31,NNE,29,8.0,11.0,50,0.00,,,0.00,,2013-01-03 20:12:00,
2013-01-03 14:22:00,18.0,3.0,30.31,NNE,29,8.0,11.0,50,0.00,,,0.00,,2013-01-03 20:22:00,
2013-01-03 15:53:00,19.0,4.0,30.34,WNW,288,5.0,10.0,52,0.00,,,0.00,,2013-01-03 21:53:00,
2013-01-03 16:03:00,19.0,4.0,30.34,WNW,288,5.0,10.0,52,0.00,,,0.00,,2013-01-03 22:03:00,
2013-01-03 16:12:00,19.0,4.0,30.34,WNW,288,5.0,10.0,52,0.00,,,0.00,,2013-01-03 22:12:00,
2013-01-03 16:22:00,19.0,4.0,30.34,WNW,288,5.0,10.0,52,0.00,,,0.00,,2013-01-03 22:22:00,
2013-01-03 17:53:00,14.0,1.0,30.37,NW,304,3.0,6.0,55,0.00,,,0.00,,2013-01-03 23:53:00,
2013-01-03 18:03:00,14.0,1.0,30.37,NW,304,3.0,6.0,55,0.00,,,0.00,,2013-01-04 00:03:00,
2013-01-03 18:12:00,14.0,1.0,30.37,NW,304,3.0,6.0,55,0.00,,,0.00,,2013-01-04 00:12:00,
2013-01-03 18:22:00,14.0,1.0,30.37,NW,304,3.0,6.0,55,0.00,,,0.00,,2013-01-04 00:22:00,
2013-01-03 19:52:00,13.0,0.0,30.34,North,356,0.0,4.0,56,0.00,,,0.00,,2013-01-04 01:52:00,
2013-01-03 20:02:00,13.0,0.0,30.34,North,356,0.0,4.0,56,0.00,,,0.00,,2013-01-04 02:02:00,
2013-01-03 20:12:00,13.0,0.0,30.34,North,356,0.0,4.0,56,0.00,,,0.00,,2013-01-04 02:12:00,
2013-01-03 20:22:00,13.0,0.0,30.34,North,356,0.0,4.0,56,0.00,,,0.00,,2013-01-04 02:22:00,
2013-01-03 21:53:00,13.0,0.0,30.34,WSW,246,0.0,4.0,56,0.00,,,0.00,,2013-01-04 03:53:00,
2013-01-03 22:02:00,13.0,0.0,30.34,WSW,246,0.0,4.0,56,0.00,,,0.00,,2013-01-04 04:02:00,
2013-01-03 22:12:00,13.0,0.0,30.34,WSW,246,0.0,4.0,56,0.00,,,0.00,,2013-01-04 04:12:00,
2013-01-03 22:22:00,13.0,0.0,30.34,WSW,246,0.0,4.0,56,0.00,,,0.00,,2013-01-04 04:22:00,
2013-01-03 23:53:00,13.0,0.0,30.31,West,273,0.0,3.0,56,0.00,,,0.00,,2013-01-04 05:53:00,